Location: Julian California
(33.0790°N, 116.6010°W)
Time: 17:51:47
(UTC-08:00)

Cosmos 1538 Rocket - Pass Details

Date: 19 May 2017
Orbit: 752 x 792 km, 74.0° (Epoch: 22 November)

Event Time Altitude Azimuth Distance (km) Brightness Sun altitude
Rises 20:30:33 0° 178° (S) 3,188 6.9 -9.8°
Reaches altitude 10° 20:33:01 10° 171° (S) 2,265 6.1 -10.2°
Maximum altitude 20:37:49 42° 101° (ESE) 1,068 4.3 -11.0°
Drops below altitude 10° 20:42:38 10° 32° (NNE) 2,276 6.5 -11.9°
Sets 20:45:06 0° 26° (NNE) 3,206 7.3 -12.3°
